M I D A S
Marine Information and Data Acquisition System
Tripno 1684 of the Zeeleeuw from 2009-04-29 06:57:01 to 2009-04-29 15:12:57
Back to CruiseResearch ActivitiesStationsMapUnderway DataData graphs

EquipmentUnitsComments
TimeDGPSUTC
LatitudeDGPSDM.mWGS84
LongitudeDGPSDM.mWGS84
SpeedMeteo Stationm/sRelative wind speed
DirectionMeteo StationdegRelative wind direction
TemperatureMeteo Stationdeg CelciusAir temperature
PressureMeteo StationPaAtmospheric pressure
HumidityMeteo Station%Relative humidity
Missing or incorrect values are displayed as -999
Metereological data collected by the RV Zeeleeuw from 2009-04-29 06:58:23 to 2009-04-29 15:18:10
Time Latitude Longitude Speed Direction Temperature Pressure Humidity
2009-04-29 06:59 51°13.682 2°55.893 1.3 75 9.6 100750 83
2009-04-29 07:00 51°13.711 2°55.803 1.4 76 9.6 100760 82
2009-04-29 07:01 51°13.759 2°55.72 1.4 73 9.5 100760 82
2009-04-29 07:02 51°13.821 2°55.659 1 82 9.4 100750 82
2009-04-29 07:03 51°13.887 2°55.627 1.3 50 9.5 100750 82
2009-04-29 07:04 51°13.942 2°55.651 1.1 75 9.4 100750 81
2009-04-29 07:05 51°13.953 2°55.61 1.7 287 9.4 100750 82
2009-04-29 07:06 51°14.021 2°55.526 3.8 281 9.4 100750 82
2009-04-29 07:07 51°14.12 2°55.423 3.7 279 9.4 100750 83
2009-04-29 07:08 51°14.223 2°55.311 4.4 281 9.3 100760 83
2009-04-29 07:09 51°14.316 2°55.154 5.2 279 9.3 100760 84
2009-04-29 07:10 51°14.406 2°54.956 4.5 281 9.3 100750 84
2009-04-29 07:11 51°14.478 2°54.728 5.1 285 9.3 100750 84
2009-04-29 07:12 51°14.558 2°54.468 5.3 283 9.3 100750 85
2009-04-29 07:13 51°14.638 2°54.206 5.7 283 9.2 100760 85
2009-04-29 07:14 51°14.718 2°53.933 6.7 284 9.2 100760 86
2009-04-29 07:15 51°14.804 2°53.677 6.2 282 9.1 100760 86
2009-04-29 07:16 51°14.898 2°53.412 5.4 282 9 100760 86
2009-04-29 07:17 51°14.989 2°53.127 6.6 282 9 100760 87
2009-04-29 07:18 51°15.078 2°52.851 6.4 283 8.9 100760 87
2009-04-29 07:19 51°15.168 2°52.565 5.5 285 8.9 100760 87
2009-04-29 07:20 51°15.254 2°52.274 6.3 282 8.9 100760 88
2009-04-29 07:21 51°15.35 2°51.967 6.1 285 8.9 100760 87
2009-04-29 07:22 51°15.444 2°51.666 6.7 284 9 100770 85
2009-04-29 07:23 51°15.54 2°51.362 6.1 278 9 100760 85
2009-04-29 07:24 51°15.637 2°51.059 6.5 283 9 100770 85
2009-04-29 07:25 51°15.732 2°50.755 6 283 9.1 100760 85
2009-04-29 07:26 51°15.833 2°50.458 7 330 9.1 100770 85
2009-04-29 07:27 51°15.964 2°50.213 7 278 9.1 100760 85
2009-04-29 07:28 51°16.142 2°50.049 6.4 283 9.2 100770 87
2009-04-29 07:29 51°16.323 2°49.911 7 281 9.2 100760 87
2009-04-29 07:30 51°16.513 2°49.776 6.9 280 9.2 100760 87
2009-04-29 07:31 51°16.692 2°49.629 7.5 285 9.2 100760 86
2009-04-29 07:32 51°16.87 2°49.469 7.4 279 9.3 100770 86
2009-04-29 07:33 51°17.042 2°49.3 7.6 279 9.3 100770 86
2009-04-29 07:34 51°17.213 2°49.134 7.3 287 9.3 100770 86
2009-04-29 07:35 51°17.391 2°48.966 6.9 283 9.4 100770 86
2009-04-29 07:36 51°17.565 2°48.805 8.1 281 9.4 100760 87
2009-04-29 07:37 51°17.742 2°48.637 8.1 281 9.4 100760 86
2009-04-29 07:38 51°17.916 2°48.464 8.3 285 9.4 100760 86
2009-04-29 07:39 51°18.093 2°48.292 6.7 280 9.4 100770 86
2009-04-29 07:40 51°18.271 2°48.121 8 282 9.5 100770 87
2009-04-29 07:41 51°18.445 2°47.949 7.6 279 9.5 100770 86
2009-04-29 07:42 51°18.629 2°47.795 7.5 331 9.5 100770 86
2009-04-29 07:43 51°18.805 2°47.641 7.2 282 9.5 100770 86
2009-04-29 07:44 51°18.991 2°47.488 6.4 287 9.5 100770 86
2009-04-29 07:45 51°19.166 2°47.334 6.2 280 9.5 100770 86
2009-04-29 07:46 51°19.351 2°47.182 7.2 285 9.5 100770 86
2009-04-29 07:47 51°19.528 2°47.029 5.8 286 9.5 100770 86
2009-04-29 07:48 51°19.712 2°46.875 7.2 285 9.5 100770 86
2009-04-29 07:49 51°19.89 2°46.728 7 281 9.6 100770 86
2009-04-29 07:50 51°20.068 2°46.58 7.3 281 9.6 100780 85
2009-04-29 07:51 51°20.246 2°46.422 5.9 279 9.6 100780 84
2009-04-29 07:52 51°20.425 2°46.263 7.4 280 9.6 100780 84
2009-04-29 07:53 51°20.609 2°46.098 7.1 279 9.6 100780 84
2009-04-29 07:54 51°20.776 2°45.903 7.3 284 9.7 100780 84
2009-04-29 07:55 51°20.927 2°45.67 6.1 279 9.7 100790 84
2009-04-29 07:56 51°21.076 2°45.435 7.1 281 9.7 100790 83
2009-04-29 07:57 51°21.229 2°45.215 6.7 287 9.7 100790 84
2009-04-29 07:58 51°21.399 2°45.051 5.6 279 9.8 100790 84
2009-04-29 07:59 51°21.579 2°44.912 7.2 280 9.8 100790 83
2009-04-29 08:00 51°21.759 2°44.768 7.6 280 9.9 100790 84
2009-04-29 08:01 51°21.939 2°44.626 7.3 280 9.9 100790 84
2009-04-29 08:02 51°22.124 2°44.479 6.2 280 9.9 100790 84
2009-04-29 08:03 51°22.307 2°44.334 6.2 280 9.9 100800 84
2009-04-29 08:04 51°22.486 2°44.19 7.5 286 9.9 100800 84
2009-04-29 08:05 51°22.67 2°44.043 6.2 286 9.9 100810 84
2009-04-29 08:06 51°22.849 2°43.895 7.1 283 10 100810 84
2009-04-29 08:07 51°23.024 2°43.734 7.3 280 10 100810 84
2009-04-29 08:08 51°23.201 2°43.584 6.1 280 9.9 100810 84
2009-04-29 08:09 51°23.384 2°43.438 7 282 10 100820 84
2009-04-29 08:10 51°23.562 2°43.304 5.8 286 9.9 100820 84
2009-04-29 08:11 51°23.748 2°43.159 6.9 286 10 100820 84
2009-04-29 08:12 51°23.924 2°43.011 6.1 279 10 100820 85
2009-04-29 08:13 51°24.108 2°42.861 7.1 285 10 100820 85
2009-04-29 08:14 51°24.289 2°42.709 7.2 280 10 100820 85
2009-04-29 08:15 51°24.467 2°42.556 6.8 281 10 100830 85
2009-04-29 08:16 51°24.642 2°42.398 7.1 286 10 100830 85
2009-04-29 08:17 51°24.82 2°42.245 7.1 286 10 100830 85
2009-04-29 08:18 51°24.998 2°42.096 4.4 278 10.1 100830 85
2009-04-29 08:19 51°25.178 2°41.951 6.8 281 10.1 100830 85
2009-04-29 08:20 51°25.357 2°41.805 5.4 284 10.1 100840 86
2009-04-29 08:21 51°25.534 2°41.655 5.2 281 10.1 100840 86
2009-04-29 08:22 51°25.71 2°41.501 6.2 278 10.1 100840 86
2009-04-29 08:23 51°25.887 2°41.351 6.2 278 10.2 100840 86
2009-04-29 08:24 51°26.06 2°41.203 6.2 278 10.2 100840 86
2009-04-29 08:25 51°26.235 2°41.035 5.9 283 10.2 100840 86
2009-04-29 08:26 51°26.406 2°40.869 5.1 283 10.2 100840 86
2009-04-29 08:27 51°26.577 2°40.702 6.3 278 10.2 100840 86
2009-04-29 08:28 51°26.748 2°40.53 5.2 287 10.3 100850 86
2009-04-29 08:29 51°26.918 2°40.357 6.1 277 10.3 100850 85
2009-04-29 08:30 51°27.089 2°40.187 6.1 280 10.3 100850 85
2009-04-29 08:31 51°27.26 2°40.02 4.8 279 10.3 100850 85
2009-04-29 08:32 51°27.432 2°39.855 5 285 10.3 100840 85
2009-04-29 08:33 51°27.604 2°39.703 5.6 285 10.3 100850 84
2009-04-29 08:34 51°27.781 2°39.541 6 282 10.3 100850 84
2009-04-29 08:35 51°27.954 2°39.377 5.8 280 10.4 100850 83
2009-04-29 08:36 51°28.129 2°39.22 4.9 286 10.4 100850 83
2009-04-29 08:37 51°28.31 2°39.097 4.9 279 10.4 100860 82
2009-04-29 08:38 51°28.499 2°39.117 6.1 278 10.4 100860 83
2009-04-29 08:39 51°28.635 2°39.306 5.7 282 10.4 100860 83
2009-04-29 08:40 51°28.715 2°39.566 6.8 278 10.5 100860 83
2009-04-29 08:41 51°28.793 2°39.842 6 285 10.5 100860 83
2009-04-29 08:42 51°28.868 2°40.109 5.8 288 10.6 100860 82
2009-04-29 08:43 51°28.963 2°40.372 6.8 283 10.6 100860 83
2009-04-29 08:44 51°29.055 2°40.628 7.1 284 10.7 100860 83
2009-04-29 08:45 51°29.147 2°40.883 5.8 284 10.7 100860 83
2009-04-29 08:46 51°29.24 2°41.135 7 280 10.7 100860 83
2009-04-29 08:47 51°29.334 2°41.388 6.8 278 10.6 100870 82
2009-04-29 08:48 51°29.429 2°41.639 7.2 283 10.6 100860 83
2009-04-29 08:49 51°29.523 2°41.892 7.1 279 10.6 100870 82
2009-04-29 08:50 51°29.615 2°42.147 7 284 10.6 100870 82
2009-04-29 08:51 51°29.695 2°42.381 6.3 336 10.6 100870 83
2009-04-29 08:52 51°29.784 2°42.629 6 336 10.6 100870 82
2009-04-29 08:53 51°29.875 2°42.891 6.9 337 10.6 100870 82
2009-04-29 08:54 51°29.971 2°43.143 6.2 338 10.6 100870 82
2009-04-29 08:55 51°30.063 2°43.397 6.2 339 10.6 100870 82
2009-04-29 08:56 51°30.15 2°43.654 7.3 339 10.7 100870 82
2009-04-29 08:57 51°30.243 2°43.905 6.2 338 10.7 100870 82
2009-04-29 08:58 51°30.338 2°44.157 6.3 337 10.7 100870 83
2009-04-29 08:59 51°30.432 2°44.407 7.2 338 10.7 100870 83
2009-04-29 09:00 51°30.524 2°44.654 6.7 339 10.7 100870 84
2009-04-29 09:01 51°30.62 2°44.901 7.4 338 10.7 100870 83
2009-04-29 09:02 51°30.72 2°45.154 7.5 340 10.7 100870 82
2009-04-29 09:03 51°30.818 2°45.4 6.2 341 10.8 100870 82
2009-04-29 09:04 51°30.914 2°45.649 7.6 340 10.7 100880 83
2009-04-29 09:05 51°31.005 2°45.896 6.5 342 10.7 100870 82
2009-04-29 09:06 51°31.098 2°46.151 6.1 341 10.6 100870 83
2009-04-29 09:07 51°31.192 2°46.398 7.6 341 10.6 100880 83
2009-04-29 09:08 51°31.287 2°46.642 7.5 341 10.6 100880 83
2009-04-29 09:09 51°31.377 2°46.89 8 339 10.7 100880 83
2009-04-29 09:10 51°31.466 2°47.14 7.9 341 10.7 100880 83
2009-04-29 09:11 51°31.553 2°47.391 8 342 10.7 100890 83
2009-04-29 09:12 51°31.641 2°47.637 6.8 342 10.6 100880 83
2009-04-29 09:13 51°31.733 2°47.884 7.2 341 10.6 100880 84
2009-04-29 09:14 51°31.827 2°48.125 7.9 344 10.5 100890 84
2009-04-29 09:15 51°31.918 2°48.369 7.7 342 10.5 100880 84
2009-04-29 09:16 51°32.006 2°48.617 6.7 345 10.5 100890 85
2009-04-29 09:17 51°32.097 2°48.859 7.8 344 10.4 100880 84
2009-04-29 09:18 51°32.187 2°49.112 8.6 343 10.4 100880 85
2009-04-29 09:19 51°32.275 2°49.358 7.6 341 10.4 100880 85
2009-04-29 09:20 51°32.366 2°49.609 7.9 343 10.4 100880 83
2009-04-29 09:21 51°32.454 2°49.853 6.5 343 10.4 100880 84
2009-04-29 09:22 51°32.54 2°50.109 8.1 342 10.3 100880 83
2009-04-29 09:23 51°32.619 2°50.366 7.2 344 10.3 100880 84
2009-04-29 09:24 51°32.699 2°50.624 7 344 10.3 100880 83
2009-04-29 09:25 51°32.78 2°50.882 7.5 343 10.3 100890 84
2009-04-29 09:26 51°32.86 2°51.135 7.8 341 10.3 100880 84
2009-04-29 09:27 51°32.943 2°51.393 6.9 344 10.4 100880 84
2009-04-29 09:28 51°33.028 2°51.637 6.7 344 10.3 100890 84
2009-04-29 09:29 51°33.118 2°51.883 6.4 342 10.3 100880 84
2009-04-29 09:30 51°33.211 2°52.124 7.8 343 10.3 100890 84
2009-04-29 09:31 51°33.299 2°52.372 6.2 343 10.3 100880 83
2009-04-29 09:32 51°33.388 2°52.618 6.3 344 10.4 100880 83
2009-04-29 09:33 51°33.479 2°52.862 7 345 10.3 100890 84
2009-04-29 09:34 51°33.567 2°53.106 6.4 346 10.3 100890 84
2009-04-29 09:35 51°33.659 2°53.344 6.2 346 10.3 100890 84
2009-04-29 09:36 51°33.75 2°53.59 7.6 344 10.4 100890 85
2009-04-29 09:37 51°33.834 2°53.831 7.2 343 10.4 100890 84
2009-04-29 09:38 51°33.925 2°54.078 7 345 10.4 100890 84
2009-04-29 09:39 51°34.014 2°54.314 6.4 343 10.4 100890 84
2009-04-29 09:40 51°34.104 2°54.555 6.2 343 10.5 100890 84
2009-04-29 09:41 51°34.19 2°54.806 6.1 343 10.5 100900 84
2009-04-29 09:42 51°34.281 2°55.043 6.7 342 10.5 100890 84
2009-04-29 09:43 51°34.379 2°55.282 6.5 342 10.5 100900 84
2009-04-29 09:44 51°34.477 2°55.516 6.2 344 10.5 100900 85
2009-04-29 09:45 51°34.574 2°55.752 6.8 343 10.5 100900 85
2009-04-29 09:46 51°34.667 2°55.986 5.8 343 10.5 100900 85
2009-04-29 09:47 51°34.761 2°56.223 6.5 342 10.5 100900 85
2009-04-29 09:48 51°34.851 2°56.465 6.8 343 10.5 100900 85
2009-04-29 09:49 51°34.935 2°56.707 6.9 345 10.5 100900 86
2009-04-29 09:50 51°35.024 2°56.949 6.4 343 10.5 100910 86
2009-04-29 09:51 51°35.111 2°57.182 6 343 10.5 100910 87
2009-04-29 09:52 51°35.203 2°57.423 7.4 344 10.4 100910 86
2009-04-29 09:53 51°35.295 2°57.656 6.2 344 10.4 100910 86
2009-04-29 09:54 51°35.384 2°57.891 7.7 342 10.4 100910 85
2009-04-29 09:55 51°35.472 2°58.128 6.1 345 10.4 100910 86
2009-04-29 09:56 51°35.562 2°58.356 7.4 343 10.4 100910 85
2009-04-29 09:57 51°35.655 2°58.587 6.7 344 10.4 100910 86
2009-04-29 09:58 51°35.746 2°58.82 7.6 343 10.4 100910 86
2009-04-29 09:59 51°35.832 2°59.067 6.8 343 10.4 100910 85
2009-04-29 10:00 51°35.786 2°59.32 7.9 335 10.5 100910 86
2009-04-29 10:01 51°35.654 2°59.549 9 334 10.6 100910 85
2009-04-29 10:02 51°35.514 2°59.759 7.7 334 10.7 100910 83
2009-04-29 10:03 51°35.371 2°59.974 8.1 332 10.8 100910 82
2009-04-29 10:04 51°35.227 3°0.19 9.3 334 10.8 100910 81
2009-04-29 10:05 51°35.088 3°0.414 8.2 334 10.8 100920 81
2009-04-29 10:06 51°34.945 3°0.643 8.2 332 10.8 100910 80
2009-04-29 10:07 51°34.805 3°0.862 7.8 333 10.9 100910 81
2009-04-29 10:08 51°34.663 3°1.096 9 334 10.9 100920 82
2009-04-29 10:09 51°34.518 3°1.313 8 330 10.9 100920 82
2009-04-29 10:10 51°34.32 3°1.28 7 302 10.9 100920 81
2009-04-29 10:11 51°34.191 3°1.01 6 309 11.1 100920 81
2009-04-29 10:12 51°34.086 3°0.7 5.2 307 11.1 100920 80
2009-04-29 10:13 51°34 3°0.39 5.2 304 11.2 100920 79
2009-04-29 10:14 51°33.915 3°0.072 6.1 302 11.3 100920 79
2009-04-29 10:15 51°33.83 2°59.747 6.3 310 11.3 100920 79
2009-04-29 10:16 51°33.752 2°59.427 6.2 306 11.3 100930 79
2009-04-29 10:17 51°33.669 2°59.097 6.8 301 11.3 100930 78
2009-04-29 10:18 51°33.589 2°58.769 6.5 302 11.3 100920 78
2009-04-29 10:19 51°33.51 2°58.443 6.6 309 11.3 100930 78
2009-04-29 10:20 51°33.431 2°58.124 6.6 308 11.3 100930 78
2009-04-29 10:21 51°33.351 2°57.793 6.9 321 11.4 100930 77
2009-04-29 10:22 51°33.347 2°57.473 4.6 304 11.4 100930 77
2009-04-29 10:23 51°33.398 2°57.164 4.2 301 11.4 100930 77
2009-04-29 10:24 51°33.439 2°56.832 5.5 301 11.4 100940 77
2009-04-29 10:25 51°33.463 2°56.502 6.3 303 11.4 100930 78
2009-04-29 10:26 51°33.474 2°56.16 5.5 305 11.4 100940 78
2009-04-29 10:27 51°33.465 2°55.813 6.3 303 11.4 100940 77
2009-04-29 10:28 51°33.412 2°55.464 7.3 303 11.4 100940 78
2009-04-29 10:29 51°33.322 2°55.139 5.8 324 11.3 100940 78
2009-04-29 10:30 51°33.185 2°54.855 6.9 328 11.3 100930 78
2009-04-29 10:31 51°32.983 2°54.709 7.9 329 11.2 100940 79
2009-04-29 10:32 51°32.768 2°54.71 6.7 332 11.2 100940 79
2009-04-29 10:33 51°32.544 2°54.738 7.5 333 11.1 100940 80
2009-04-29 10:34 51°32.324 2°54.752 7.5 329 11.1 100940 80
2009-04-29 10:35 51°32.113 2°54.657 6.5 329 11 100940 79
2009-04-29 10:36 51°31.954 2°54.421 6.1 328 11.1 100940 80
2009-04-29 10:37 51°31.84 2°54.106 5.8 302 11.1 100940 79
2009-04-29 10:38 51°31.743 2°53.788 6.8 328 11.1 100950 79
2009-04-29 10:39 51°31.64 2°53.46 6.8 328 11.1 100950 79
2009-04-29 10:40 51°31.536 2°53.139 6.7 326 11.1 100950 79
2009-04-29 10:41 51°31.434 2°52.824 5.7 328 11.2 100950 79
2009-04-29 10:42 51°31.325 2°52.502 6.6 328 11.2 100950 79
2009-04-29 10:43 51°31.217 2°52.187 5.7 302 11.2 100950 78
2009-04-29 10:44 51°31.104 2°51.877 6.8 302 11.3 100950 77
2009-04-29 10:45 51°30.992 2°51.566 6 328 11.3 100950 77
2009-04-29 10:46 51°30.882 2°51.262 5.5 301 11.3 100960 75
2009-04-29 10:47 51°30.77 2°50.952 6.8 330 11.3 100960 76
2009-04-29 10:48 51°30.659 2°50.636 7.3 329 11.3 100960 77
2009-04-29 10:49 51°30.552 2°50.323 7.2 328 11.3 100960 77
2009-04-29 10:50 51°30.444 2°50.016 6.8 329 11.2 100960 77
2009-04-29 10:51 51°30.327 2°49.703 6.7 330 11.2 100960 77
2009-04-29 10:52 51°30.21 2°49.399 5.8 283 11.2 100960 78
2009-04-29 10:53 51°30.093 2°49.093 6 331 11.1 100970 79
2009-04-29 10:54 51°29.979 2°48.783 6 285 11.1 100970 80
2009-04-29 10:55 51°29.864 2°48.476 5.7 279 11.1 100970 79
2009-04-29 10:56 51°29.747 2°48.169 6.7 331 11.1 100970 79
2009-04-29 10:57 51°29.631 2°47.871 6.5 331 11.1 100970 78
2009-04-29 10:58 51°29.514 2°47.559 5.5 333 11.1 100970 79
2009-04-29 10:59 51°29.398 2°47.251 6.2 283 11.1 100970 79
2009-04-29 11:00 51°29.283 2°46.945 5.6 334 11.2 100970 79
2009-04-29 11:01 51°29.17 2°46.638 6.2 333 11.2 100970 78
2009-04-29 11:02 51°29.059 2°46.331 6.2 334 11.2 100970 78
2009-04-29 11:03 51°28.963 2°46.01 5.5 334 11.3 100970 78
2009-04-29 11:04 51°28.901 2°45.673 5.5 335 11.3 100970 77
2009-04-29 11:05 51°28.854 2°45.333 6.4 280 11.3 100970 77
2009-04-29 11:06 51°28.81 2°44.993 6.4 277 11.2 100970 78
2009-04-29 11:07 51°28.732 2°44.666 6.2 335 11.2 100980 77
2009-04-29 11:08 51°28.642 2°44.351 5.7 336 11.1 100980 78
2009-04-29 11:09 51°28.528 2°44.04 6.3 335 11.1 100980 78
2009-04-29 11:10 51°28.402 2°43.749 5.9 283 11.2 100980 78
2009-04-29 11:11 51°28.278 2°43.457 7.1 336 11.2 100980 79
2009-04-29 11:12 51°28.146 2°43.179 5.9 337 11.2 100980 78
2009-04-29 11:13 51°27.993 2°42.914 6.8 337 11.3 100990 78
2009-04-29 11:14 51°27.845 2°42.648 6.6 337 11.2 100990 78
2009-04-29 11:15 51°27.699 2°42.38 6.9 280 11.2 100990 78
2009-04-29 11:16 51°27.522 2°42.2 5.2 340 11.3 100990 79
2009-04-29 11:17 51°27.35 2°42.296 4.6 334 11.2 101000 80
2009-04-29 11:18 51°27.183 2°42.462 4.6 330 11.2 100990 79
2009-04-29 11:19 51°27.016 2°42.624 4.2 282 11.3 100990 79
2009-04-29 11:20 51°26.851 2°42.786 5 334 11.3 101000 79
2009-04-29 11:21 51°26.681 2°42.942 4.9 332 11.3 101000 79
2009-04-29 11:22 51°26.508 2°43.095 5 333 11.4 101000 78
2009-04-29 11:23 51°26.419 2°43.319 4.8 322 11.4 101000 77
2009-04-29 11:24 51°26.483 2°43.549 6.3 322 11.5 100990 78
2009-04-29 11:25 51°26.56 2°43.778 5.1 322 11.6 100990 77
2009-04-29 11:26 51°26.635 2°44.01 5.7 321 11.6 100990 78
2009-04-29 11:27 51°26.707 2°44.244 5.7 308 11.7 100990 78
2009-04-29 11:28 51°26.777 2°44.475 6.4 305 11.7 101000 77
2009-04-29 11:29 51°26.851 2°44.712 6 301 11.8 100990 77
2009-04-29 11:30 51°26.918 2°44.952 6.9 302 11.7 101000 78
2009-04-29 11:31 51°26.988 2°45.189 5.6 278 11.7 100990 78
2009-04-29 11:32 51°27.063 2°45.423 6.7 303 11.6 101000 78
2009-04-29 11:33 51°27.144 2°45.65 6.4 280 11.6 101000 78
2009-04-29 11:34 51°27.224 2°45.875 5.8 309 11.6 101000 78
2009-04-29 11:35 51°27.3 2°46.099 6.8 309 11.6 101000 78
2009-04-29 11:36 51°27.376 2°46.336 6.6 310 11.6 101000 78
2009-04-29 11:37 51°27.45 2°46.571 6.9 302 11.6 101000 78
2009-04-29 11:38 51°27.53 2°46.801 6.1 302 11.5 101000 78
2009-04-29 11:39 51°27.606 2°47.035 6.7 304 11.5 101000 78
2009-04-29 11:40 51°27.681 2°47.271 6.5 304 11.5 101000 79
2009-04-29 11:41 51°27.757 2°47.506 5.7 310 11.5 101000 79
2009-04-29 11:42 51°27.836 2°47.734 7 302 11.5 101000 80
2009-04-29 11:43 51°27.922 2°47.966 6.8 304 11.5 101000 80
2009-04-29 11:44 51°28.011 2°48.189 7 303 11.5 101010 79
2009-04-29 11:45 51°28.098 2°48.418 6.8 302 11.5 101010 79
2009-04-29 11:46 51°28.186 2°48.643 7 305 11.5 101010 80
2009-04-29 11:47 51°28.267 2°48.873 5.7 310 11.4 101010 79
2009-04-29 11:48 51°28.35 2°49.103 5.7 302 11.4 101010 80
2009-04-29 11:49 51°28.437 2°49.333 7.4 307 11.4 101010 80
2009-04-29 11:50 51°28.521 2°49.566 6.2 304 11.5 101010 80
2009-04-29 11:51 51°28.607 2°49.797 7.5 278 11.5 101010 80
2009-04-29 11:52 51°28.694 2°50.026 7.6 303 11.5 101010 79
2009-04-29 11:53 51°28.779 2°50.259 6.3 278 11.5 101010 79
2009-04-29 11:54 51°28.862 2°50.495 6.9 278 11.5 101010 80
2009-04-29 11:55 51°28.947 2°50.733 7 310 11.5 101010 80
2009-04-29 11:56 51°29.035 2°50.968 8.6 284 11.4 101010 80
2009-04-29 11:57 51°29.12 2°51.205 8.9 311 11.4 101010 80
2009-04-29 11:58 51°29.197 2°51.451 8.4 282 11.4 101010 81
2009-04-29 11:59 51°29.276 2°51.696 7.1 283 11.4 101010 81
2009-04-29 12:00 51°29.355 2°51.941 8 309 11.4 101010 81
2009-04-29 12:01 51°29.435 2°52.187 8.4 286 11.3 101010 82
2009-04-29 12:02 51°29.521 2°52.43 8 307 11.3 101020 82
2009-04-29 12:03 51°29.607 2°52.674 6.9 281 11.3 101010 83
2009-04-29 12:04 51°29.689 2°52.922 7 308 11.3 101020 82
2009-04-29 12:05 51°29.776 2°53.166 8.2 279 11.3 101010 83
2009-04-29 12:06 51°29.856 2°53.418 8.1 307 11.3 101020 82
2009-04-29 12:07 51°29.933 2°53.674 6.7 278 11.3 101020 83
2009-04-29 12:08 51°30.014 2°53.927 7.2 306 11.3 101020 83
2009-04-29 12:09 51°30.102 2°54.171 7.3 310 11.4 101020 83
2009-04-29 12:10 51°30.187 2°54.418 7.6 306 11.4 101020 82
2009-04-29 12:11 51°30.274 2°54.664 8.3 303 11.4 101020 82
2009-04-29 12:12 51°30.357 2°54.914 6.9 307 11.4 101020 81
2009-04-29 12:13 51°30.437 2°55.164 6.8 310 11.4 101020 82
2009-04-29 12:14 51°30.517 2°55.412 6.6 305 11.4 101020 82
2009-04-29 12:15 51°30.594 2°55.662 8 320 11.4 101020 82
2009-04-29 12:16 51°30.67 2°55.915 7 280 11.5 101020 82
2009-04-29 12:17 51°30.747 2°56.166 7.8 302 11.6 101030 82
2009-04-29 12:18 51°30.828 2°56.411 6.9 306 11.6 101030 81
2009-04-29 12:19 51°30.915 2°56.65 7.2 308 11.6 101030 81
2009-04-29 12:20 51°31.001 2°56.889 7.1 304 11.6 101030 81
2009-04-29 12:21 51°31.081 2°57.135 8.2 303 11.6 101030 80
2009-04-29 12:22 51°31.162 2°57.382 8.3 309 11.6 101030 80
2009-04-29 12:23 51°31.248 2°57.624 8.4 305 11.6 101030 80
2009-04-29 12:24 51°31.337 2°57.864 7.9 305 11.6 101030 79
2009-04-29 12:25 51°31.42 2°58.111 7.9 307 11.6 101030 80
2009-04-29 12:26 51°31.503 2°58.361 7.1 278 11.6 101030 81
2009-04-29 12:27 51°31.587 2°58.61 7.3 302 11.6 101030 81
2009-04-29 12:28 51°31.674 2°58.853 8.1 304 11.6 101040 81
2009-04-29 12:29 51°31.758 2°59.101 6.9 308 11.6 101040 82
2009-04-29 12:30 51°31.842 2°59.349 8.1 281 11.7 101040 81
2009-04-29 12:31 51°31.932 2°59.591 7.4 307 11.6 101040 82
2009-04-29 12:32 51°32.024 2°59.832 8.3 281 11.6 101040 82
2009-04-29 12:33 51°32.115 3°0.073 8 321 11.7 101040 82
2009-04-29 12:34 51°32.2 3°0.323 7.2 321 11.7 101040 82
2009-04-29 12:35 51°32.283 3°0.575 7.2 301 11.7 101040 84
2009-04-29 12:36 51°32.367 3°0.83 8.1 307 11.7 101040 84
2009-04-29 12:37 51°32.451 3°1.088 7.4 308 11.8 101040 84
2009-04-29 12:38 51°32.532 3°1.35 7 301 11.8 101040 84
2009-04-29 12:39 51°32.617 3°1.608 7.2 284 11.8 101040 84
2009-04-29 12:40 51°32.699 3°1.87 8.5 302 11.8 101040 83
2009-04-29 12:41 51°32.786 3°2.131 7.2 278 11.8 101040 83
2009-04-29 12:42 51°32.876 3°2.387 8.6 321 11.8 101050 83
2009-04-29 12:43 51°32.965 3°2.646 7.2 307 11.8 101050 83
2009-04-29 12:44 51°33.054 3°2.905 7 304 11.8 101050 83
2009-04-29 12:45 51°33.142 3°3.164 7 306 11.8 101050 83
2009-04-29 12:46 51°33.116 3°3.46 5.3 309 11.8 101060 82
2009-04-29 12:47 51°32.986 3°3.709 4.5 309 11.7 101060 83
2009-04-29 12:48 51°32.84 3°3.94 4.7 286 11.7 101060 83
2009-04-29 12:49 51°32.692 3°4.168 4.3 309 11.7 101060 83
2009-04-29 12:50 51°32.543 3°4.39 4.8 304 11.6 101060 83
2009-04-29 12:51 51°32.393 3°4.606 4.2 308 11.6 101060 83
2009-04-29 12:52 51°32.24 3°4.819 5.2 310 11.6 101060 82
2009-04-29 12:53 51°32.087 3°5.034 5.1 303 11.6 101060 82
2009-04-29 12:54 51°31.906 3°5.177 2.4 310 11.6 101060 81
2009-04-29 12:55 51°31.702 3°5.116 3 355 11.7 101070 81
2009-04-29 12:56 51°31.566 3°4.859 6.6 351 11.5 101050 81
2009-04-29 12:57 51°31.484 3°4.542 7.3 354 11.3 101050 82
2009-04-29 12:58 51°31.394 3°4.228 6.9 353 11.2 101050 84
2009-04-29 12:59 51°31.297 3°3.918 6.5 354 11 101050 86
2009-04-29 13:00 51°31.201 3°3.607 5.6 354 11 101050 87
2009-04-29 13:01 51°31.089 3°3.31 5.8 352 10.9 101050 88
2009-04-29 13:02 51°30.974 3°3.014 5.5 355 10.8 101050 88
2009-04-29 13:03 51°30.859 3°2.717 5.4 355 10.8 101050 89
2009-04-29 13:04 51°30.748 3°2.419 6 357 10.8 101050 89
2009-04-29 13:05 51°30.637 3°2.119 6.2 354 10.8 101050 89
2009-04-29 13:06 51°30.53 3°1.817 5.5 355 10.8 101050 89
2009-04-29 13:07 51°30.421 3°1.517 5.7 355 10.8 101050 90
2009-04-29 13:08 51°30.318 3°1.213 6.3 356 10.8 101050 90
2009-04-29 13:09 51°30.213 3°0.911 6.1 356 10.8 101050 90
2009-04-29 13:10 51°30.105 3°0.613 5.9 356 10.7 101060 90
2009-04-29 13:11 51°30 3°0.313 6.7 354 10.7 101060 89
2009-04-29 13:12 51°29.895 3°0.014 5.8 357 10.8 101050 90
2009-04-29 13:13 51°29.794 2°59.713 5.9 356 10.8 101060 90
2009-04-29 13:14 51°29.688 2°59.417 5.7 357 10.8 101060 90
2009-04-29 13:15 51°29.579 2°59.124 5.9 357 10.7 101060 90
2009-04-29 13:16 51°29.472 2°58.83 6.6 358 10.8 101070 90
2009-04-29 13:17 51°29.366 2°58.536 6.7 357 10.8 101060 90
2009-04-29 13:18 51°29.259 2°58.244 6.3 358 10.7 101060 90
2009-04-29 13:19 51°29.149 2°57.953 6 356 10.8 101070 90
2009-04-29 13:20 51°29.041 2°57.661 5.3 356 10.8 101070 90
2009-04-29 13:21 51°28.935 2°57.366 6.5 352 10.7 101070 90
2009-04-29 13:22 51°28.831 2°57.072 5.4 355 10.8 101070 89
2009-04-29 13:23 51°28.723 2°56.783 6 357 10.8 101070 89
2009-04-29 13:24 51°28.622 2°56.486 6.5 355 10.8 101070 89
2009-04-29 13:25 51°28.521 2°56.189 6.2 357 10.8 101070 89
2009-04-29 13:26 51°28.411 2°55.902 5.1 359 10.9 101070 90
2009-04-29 13:27 51°28.299 2°55.618 5.8 357 10.8 101070 89
2009-04-29 13:28 51°28.189 2°55.331 5.9 357 10.8 101070 89
2009-04-29 13:29 51°28.078 2°55.046 6.5 357 10.9 101070 88
2009-04-29 13:30 51°27.968 2°54.762 5.9 357 10.9 101070 89
2009-04-29 13:31 51°27.858 2°54.479 5.8 356 10.9 101070 89
2009-04-29 13:32 51°27.748 2°54.197 6.5 354 10.9 101070 88
2009-04-29 13:33 51°27.636 2°53.918 5.6 358 10.9 101070 88
2009-04-29 13:34 51°27.529 2°53.635 6.1 355 10.9 101070 88
2009-04-29 13:35 51°27.423 2°53.35 6.3 355 10.9 101070 88
2009-04-29 13:36 51°27.317 2°53.066 5.3 356 10.9 101070 88
2009-04-29 13:37 51°27.214 2°52.781 5.8 357 10.9 101070 88
2009-04-29 13:38 51°27.111 2°52.497 6.5 355 10.9 101070 88
2009-04-29 13:39 51°27.008 2°52.216 6 357 10.9 101070 89
2009-04-29 13:40 51°26.911 2°51.933 5.1 358 10.9 101070 89
2009-04-29 13:41 51°26.811 2°51.655 5.2 359 10.9 101070 89
2009-04-29 13:42 51°26.707 2°51.383 6.4 358 10.9 101070 88
2009-04-29 13:43 51°26.604 2°51.11 6.1 358 10.9 101070 88
2009-04-29 13:44 51°26.5 2°50.833 5.4 359 10.9 101070 88
2009-04-29 13:45 51°26.388 2°50.562 6.3 358 10.9 101070 89
2009-04-29 13:46 51°26.278 2°50.293 5.4 1 10.9 101070 89
2009-04-29 13:47 51°26.172 2°50.022 5.7 1 10.8 101070 89
2009-04-29 13:48 51°26.073 2°49.744 5.6 358 10.8 101070 90
2009-04-29 13:49 51°25.973 2°49.47 5.5 1 10.8 101070 91
2009-04-29 13:50 51°25.869 2°49.202 5.2 1 10.8 101070 91
2009-04-29 13:51 51°25.766 2°48.935 5 360 10.8 101070 91
2009-04-29 13:52 51°25.664 2°48.668 6 1 10.8 101070 91
2009-04-29 13:53 51°25.564 2°48.399 5.4 359 10.8 101070 91
2009-04-29 13:54 51°25.463 2°48.132 5.9 360 10.7 101070 91
2009-04-29 13:55 51°25.367 2°47.861 5.3 2 10.7 101070 91
2009-04-29 13:56 51°25.27 2°47.591 5.5 356 10.7 101070 91
2009-04-29 13:57 51°25.17 2°47.33 5.4 359 10.7 101070 91
2009-04-29 13:58 51°25.071 2°47.077 5.2 3 10.7 101080 91
2009-04-29 13:59 51°24.973 2°46.821 5 2 10.7 101080 91
2009-04-29 14:00 51°24.872 2°46.572 4.7 3 10.7 101080 91
2009-04-29 14:01 51°24.772 2°46.32 5.4 3 10.7 101080 92
2009-04-29 14:02 51°24.672 2°46.071 5.4 2 10.7 101080 92
2009-04-29 14:03 51°24.574 2°45.822 4.8 2 10.6 101080 92
2009-04-29 14:04 51°24.474 2°45.576 5.2 1 10.6 101080 92
2009-04-29 14:05 51°24.373 2°45.333 5.2 3 10.6 101080 92
2009-04-29 14:06 51°24.259 2°45.112 3.1 10 10.6 101080 91
2009-04-29 14:07 51°24.086 2°45.039 1.8 303 10.7 101090 92
2009-04-29 14:08 51°23.912 2°45.142 4.1 310 10.9 101090 92
2009-04-29 14:09 51°23.757 2°45.324 5.4 308 11.1 101080 91
2009-04-29 14:10 51°23.604 2°45.514 5.2 303 11.2 101080 90
2009-04-29 14:11 51°23.445 2°45.689 4.8 310 11.4 101080 90
2009-04-29 14:12 51°23.285 2°45.858 3.8 302 11.5 101080 89
2009-04-29 14:13 51°23.126 2°46.033 4.2 304 11.6 101080 88
2009-04-29 14:14 51°22.954 2°46.142 1.2 301 11.7 101090 88
2009-04-29 14:15 51°22.77 2°46.126 0.5 305 11.8 101090 88
2009-04-29 14:16 51°22.585 2°46.098 1.2 304 12 101090 88
2009-04-29 14:17 51°22.399 2°46.085 2.5 306 12.1 101090 87
2009-04-29 14:18 51°22.213 2°46.136 3.3 301 12.3 101090 85
2009-04-29 14:19 51°22.04 2°46.278 6.6 311 12.3 101090 84
2009-04-29 14:20 51°21.884 2°46.478 5.8 307 12.2 101080 83
2009-04-29 14:21 51°21.726 2°46.677 5.9 306 12.1 101080 83
2009-04-29 14:22 51°21.563 2°46.862 5.6 309 12 101080 83
2009-04-29 14:23 51°21.408 2°47.059 5.2 309 11.9 101090 84
2009-04-29 14:24 51°21.252 2°47.255 5.7 302 11.8 101080 85
2009-04-29 14:25 51°21.096 2°47.452 6.2 307 11.9 101090 86
2009-04-29 14:26 51°20.938 2°47.647 6.9 309 11.9 101090 86
2009-04-29 14:27 51°20.781 2°47.837 5.3 309 11.8 101090 86
2009-04-29 14:28 51°20.628 2°48.026 4.7 303 11.8 101090 86
2009-04-29 14:29 51°20.476 2°48.212 5.8 306 11.8 101090 86
2009-04-29 14:30 51°20.325 2°48.402 6.6 306 11.8 101090 85
2009-04-29 14:31 51°20.171 2°48.589 5.3 305 11.8 101090 85
2009-04-29 14:32 51°20.019 2°48.778 5.9 301 11.8 101090 85
2009-04-29 14:33 51°19.866 2°48.969 6 310 11.9 101090 84
2009-04-29 14:34 51°19.713 2°49.16 7 304 11.9 101090 84
2009-04-29 14:35 51°19.56 2°49.355 7.4 303 11.9 101090 84
2009-04-29 14:36 51°19.406 2°49.551 6.8 303 11.9 101080 84
2009-04-29 14:37 51°19.251 2°49.749 5.1 304 12 101090 84
2009-04-29 14:38 51°19.094 2°49.947 6.6 303 12 101090 84
2009-04-29 14:39 51°18.939 2°50.151 6.3 309 12 101090 84
2009-04-29 14:40 51°18.783 2°50.351 6.1 304 12 101080 84
2009-04-29 14:41 51°18.63 2°50.553 6.3 309 12.1 101090 84
2009-04-29 14:42 51°18.478 2°50.752 6 308 12 101090 84
2009-04-29 14:43 51°18.323 2°50.947 6.3 303 12 101090 83
2009-04-29 14:44 51°18.17 2°51.144 5.5 307 12.1 101090 83
2009-04-29 14:45 51°18.016 2°51.338 6.3 302 12.1 101090 83
2009-04-29 14:46 51°17.861 2°51.53 4.9 303 12.1 101090 83
2009-04-29 14:47 51°17.707 2°51.726 5 303 12.2 101080 83
2009-04-29 14:48 51°17.553 2°51.92 5.4 310 12.2 101090 82
2009-04-29 14:49 51°17.388 2°52.086 5.2 302 12.3 101090 82
2009-04-29 14:50 51°17.22 2°52.245 4.5 306 12.3 101090 82
2009-04-29 14:51 51°17.052 2°52.406 4.6 304 12.3 101090 82
2009-04-29 14:52 51°16.884 2°52.564 4.2 309 12.3 101100 82
2009-04-29 14:53 51°16.717 2°52.724 5.6 310 12.3 101100 81
2009-04-29 14:54 51°16.55 2°52.881 4.2 308 12.2 101100 81
2009-04-29 14:55 51°16.384 2°53.03 5.6 303 12.2 101100 82
2009-04-29 14:56 51°16.216 2°53.178 5 306 12.2 101100 81
2009-04-29 14:57 51°16.047 2°53.325 4.5 303 12.2 101100 82
2009-04-29 14:58 51°15.88 2°53.476 4 303 12.2 101090 82
2009-04-29 14:59 51°15.712 2°53.621 4.6 304 12.2 101090 82
2009-04-29 15:00 51°15.544 2°53.759 4.2 307 12.2 101100 80
2009-04-29 15:01 51°15.373 2°53.885 4.5 306 12.2 101100 80
2009-04-29 15:02 51°15.203 2°54.014 4.5 309 12.2 101100 80
2009-04-29 15:03 51°15.032 2°54.144 3.9 309 12.2 101100 80
2009-04-29 15:04 51°14.87 2°54.296 5.2 305 12.2 101100 80
2009-04-29 15:05 51°14.717 2°54.485 5.7 302 12.1 101100 80
2009-04-29 15:06 51°14.564 2°54.68 7.3 311 12.1 101100 81
2009-04-29 15:07 51°14.432 2°54.899 7.4 302 12 101100 80
2009-04-29 15:08 51°14.332 2°55.101 4.6 303 12 101100 81
2009-04-29 15:09 51°14.251 2°55.255 4.8 301 12 101110 81
2009-04-29 15:10 51°14.158 2°55.38 3.8 303 12 101110 81
2009-04-29 15:11 51°14.048 2°55.467 2.5 307 12.1 101110 82
2009-04-29 15:12 51°13.939 2°55.547 1.8 309 12.1 101110 81
2009-04-29 15:13 51°13.846 2°55.617 2.1 303 12.2 101110 80
2009-04-29 15:14 51°13.779 2°55.678 3 310 12.2 101110 81
2009-04-29 15:15 51°13.736 2°55.748 4.1 303 12.3 101110 79
2009-04-29 15:16 51°13.701 2°55.819 3 304 12.3 101120 78
2009-04-29 15:17 51°13.682 2°55.893 2.8 304 12.3 101110 78